Temp
22 23 24 22 29 33 33 32 33 31 31 32 32 31 30 26 26 23 21 23 21 20 21 21 21 22 22 22 22 22 22 21 21 21 21 21 21 21 21 21 21 21 21 21 21 21 21 21 21
24 23 24 29 32 33 32 33 32 32 32 32 32 31 31 25 25 23 24 23 23 24 23 22 21 22 21 22 22 22 21 21 21 21 22 21 22 22 21 21 21 21 21 21 21 21 21 21 20
24 23 26 31 35 33 31 32 32 32 32 32 30 31 31 28 26 24 25 23 25 25 25 22 21 22 21 21 21 21 21 21 21 21 21 21 21 21 21 21 21 21 22 21 21 21 21 21 21
26 27 30 33 33 33 33 33 32 31 32 32 32 29 28 28 28 27 24 24 24 25 25 21 21 21 21 21 21 21 21 21 21 21 21 21 21 21 21 21 22 21 21 21 21 21 21 21 21
27 29 32 33 32 33 33 33 33 32 32 31 32 30 27 27 27 26 25 25 26 25 24 22 21 21 21 21 21 21 21 21 21 21 21 21 21 21 21 21 21 21 21 21 21 21 21 21 21
30 31 34 33 32 32 33 33 33 32 32 31 31 29 26 26 26 26 26 26 26 26 24 23 22 22 22 21 21 21 21 21 21 21 21 21 21 21 21 21 21 21 21 21 21 21 21 21 21
31 34 33 33 32 32 32 33 32 32 32 31 32 29 25 28 27 27 27 27 26 25 25 24 23 22 21 21 21 21 21 21 21 21 21 21 21 21 21 21 21 21 21 21 21 21 21 21 21
32 34 32 33 33 31 32 33 33 33 31 31 32 29 26 28 27 27 27 26 26 26 26 25 24 24 23 23 21 21 21 21 21 21 21 21 21 21 22 22 22 21 21 21 21 21 21 21 21
32 34 34 33 33 32 33 32 33 33 32 32 32 31 29 27 27 27 27 26 26 26 26 26 26 24 24 24 22 22 21 21 21 21 21 22 24 24 23 23 22 21 21 21 21 21 22 21 22
33 34 33 34 34 33 33 33 32 32 31 30 31 30 27 27 27 28 28 27 27 26 26 25 25 25 24 24 23 22 23 24 24 24 23 24 24 24 24 23 23 22 21 21 21 21 21 23 25
33 32 33 33 33 34 33 33 34 32 32 31 30 29 29 28 28 29 28 28 28 27 26 25 25 25 25 25 25 24 25 25 24 23 23 24 24 24 25 24 23 22 22 24 23 24 23 24 25
33 32 32 33 32 33 33 34 33 33 33 33 32 31 30 30 30 30 29 29 28 27 27 26 26 24 25 25 25 25 25 25 25 24 23 23 24 25 24 25 25 24 23 22 23 25 24 23 23
35 34 33 32 32 33 33 33 33 33 33 33 32 31 31 31 30 30 29 29 28 28 27 27 26 24 24 24 25 25 25 25 25 24 24 25 25 25 25 23 24 24 24 23 22 23 23 22 22
35 34 34 32 32 33 33 32 33 33 34 33 32 31 32 31 30 29 29 29 28 28 27 27 25 24 24 24 23 24 25 25 25 25 25 23 25 25 26 24 24 24 23 23 23 22 22 21 22
36 35 34 34 33 33 34 31 32 33 33 32 32 32 32 32 30 30 29 29 28 28 28 27 26 25 24 23 23 24 25 25 26 26 25 24 24 25 23 24 24 25 23 22 23 22 21 21 22
36 36 36 35 34 33 34 33 33 34 33 32 33 32 32 32 31 30 30 30 29 29 27 27 26 26 25 25 24 25 25 26 26 25 26 25 24 24 24 25 25 23 23 21 21 21 20 21 22
37 37 36 36 35 34 34 34 33 34 33 33 33 33 32 32 32 31 30 30 30 28 27 26 26 26 26 25 25 25 25 25 26 26 26 26 24 24 24 25 25 23 23 22 21 21 21 21 22
36 37 37 37 35 34 34 34 34 34 34 34 33 33 33 33 33 31 31 30 30 28 27 26 26 26 25 25 24 25 26 26 26 26 27 25 25 24 25 25 24 23 24 23 22 22 23 25 26
37 37 37 37 37 35 35 34 34 34 34 34 34 34 33 34 33 32 31 30 30 29 28 27 26 26 25 25 26 26 27 27 26 26 26 25 25 24 24 25 24 24 24 23 22 23 23 24 24
37 37 38 37 36 36 35 34 35 34 34 34 34 34 34 34 35 33 32 31 30 30 28 27 26 26 25 26 26 27 27 27 27 27 26 25 24 24 24 24 24 24 24 23 22 23 25 25 25
39 38 37 37 36 36 35 35 34 34 34 34 35 35 35 35 35 34 33 32 31 30 29 28 27 26 25 26 26 25 25 25 26 26 26 25 24 24 24 24 24 24 24 25 23 23 24 25 25
39 38 37 36 37 37 37 37 35 34 34 34 34 34 35 35 35 35 34 32 32 31 30 28 27 26 25 25 26 26 27 28 28 27 27 26 24 24 24 23 24 23 24 24 24 24 23 24 26
38 37 37 37 38 39 37 37 35 35 34 34 35 35 34 34 35 35 35 33 33 32 31 29 27 26 26 25 26 26 26 28 28 27 26 25 24 24 24 24 23 24 25 23 24 24 23 25 25
38 37 38 38 39 38 37 38 39 36 37 36 35 35 35 35 34 35 35 34 33 33 32 30 27 26 25 25 25 25 27 26 28 27 27 27 27 26 24 24 24 24 25 24 24 24 24 24 24
37 39 38 37 38 37 38 38 39 39 38 38 36 36 35 35 33 35 35 35 34 33 32 30 28 26 26 26 26 25 26 25 26 26 27 28 28 27 25 24 24 24 24 24 24 23 24 23 24
38 39 38 35 37 38 38 38 38 39 39 38 38 37 36 36 35 36 36 35 33 32 32 31 29 27 26 26 26 26 25 26 26 27 28 28 28 28 26 24 25 24 24 24 23 24 24 23 24
38 38 39 39 38 38 39 39 40 39 38 38 38 37 36 36 36 35 36 35 34 33 32 31 30 28 27 27 26 26 25 25 27 27 26 27 27 27 25 25 24 24 24 23 23 25 23 23 23
38 38 38 38 36 36 38 38 37 36 35 37 37 37 37 36 36 36 36 35 34 34 33 32 31 29 28 28 27 27 26 25 26 26 26 27 27 26 26 25 24 24 24 23 23 24 23 22 23
37 38 38 39 38 37 36 37 35 35 35 35 36 37 38 37 37 37 36 35 35 34 34 33 31 30 29 28 28 27 27 26 26 26 26 26 26 26 25 25 25 24 24 23 23 23 23 22 22
37 37 39 38 36 37 37 37 34 33 34 34 35 36 37 37 37 37 37 35 34 34 32 32 32 31 29 28 27 27 27 27 27 27 27 26 26 26 25 25 25 25 24 24 23 23 23 22 22
Height
784 785 786 786 784 761 776 781 765 777 777 768 771 777 787 801 808 833 815 821 823 823 826 828 830 831 832 834 837 838 839 841 841 842 842 843 844 845 846 847 847 849 851 852 852 852 852 853 853
784 786 785 772 773 780 787 768 776 771 770 769 775 781 783 808 804 813 817 822 824 825 826 830 832 832 836 836 839 840 841 844 843 845 845 846 846 848 848 849 850 851 853 853 854 855 855 856 856
785 784 784 770 762 784 793 774 775 774 772 773 782 778 784 801 806 812 816 821 823 825 828 833 834 834 839 838 841 843 844 845 846 847 848 849 849 850 850 851 852 853 854 855 856 856 857 858 858
783 781 773 769 782 776 774 772 773 778 776 774 776 793 797 799 805 809 818 822 825 828 831 836 837 840 841 842 843 844 846 847 848 849 850 851 852 852 851 853 854 855 856 856 857 858 858 858 859
780 776 777 776 781 773 770 770 770 776 779 779 777 794 804 807 810 815 820 823 825 830 834 838 840 842 842 844 845 846 848 848 849 851 852 853 854 854 853 854 855 856 858 858 859 859 859 860 860
777 770 775 787 787 778 773 769 773 776 779 783 785 793 809 810 813 816 821 823 826 830 835 840 842 843 844 845 847 848 849 849 850 852 853 854 855 855 855 856 856 857 859 859 860 860 860 861 861
773 767 779 780 788 784 780 771 776 779 781 785 781 796 813 809 814 817 820 824 828 832 836 840 843 845 846 847 849 849 850 851 852 854 855 856 856 856 856 856 857 858 859 859 860 860 861 861 861
768 766 783 781 785 794 777 773 775 778 785 783 784 801 811 807 814 818 822 826 829 832 835 839 841 845 847 848 849 851 851 852 854 854 855 857 856 856 856 857 857 858 859 859 860 860 861 861 861
767 772 781 783 780 784 772 779 776 775 783 781 785 788 799 809 815 818 822 827 830 833 835 837 840 844 847 848 850 851 852 853 854 855 855 856 856 856 857 857 857 858 859 859 860 860 860 861 860
769 769 777 769 769 774 772 775 780 784 786 790 790 796 805 811 814 816 820 824 828 831 834 838 841 843 845 847 849 851 852 853 854 855 856 856 857 857 858 857 857 857 857 858 859 859 860 859 858
770 783 773 771 769 765 772 776 772 783 789 788 794 799 805 810 813 815 819 822 826 830 834 837 840 842 844 846 848 850 851 852 854 856 857 857 857 856 856 856 856 856 857 857 857 858 857 858 858
777 775 772 770 770 770 776 772 778 778 780 782 789 797 803 808 810 812 816 820 823 828 832 835 838 842 844 846 848 849 850 852 853 855 856 857 856 856 856 856 855 855 855 856 856 854 855 857 859
766 767 770 771 772 768 771 777 778 781 777 783 791 797 801 805 809 812 815 819 823 827 830 833 837 841 844 846 848 849 850 851 852 854 855 855 855 855 854 855 854 854 854 854 854 854 856 856 857
760 764 766 770 773 770 777 780 775 780 777 784 791 795 799 804 808 812 816 818 822 825 829 832 837 841 844 846 848 849 850 851 852 853 853 854 854 854 853 853 852 852 852 850 849 850 852 854 854
757 768 767 768 769 773 767 788 785 774 778 784 789 793 796 801 806 810 815 818 821 824 827 831 835 839 843 845 847 849 850 851 851 852 852 852 852 852 851 851 851 850 850 847 847 847 849 851 853
761 760 770 762 764 767 768 789 775 770 778 783 785 790 795 799 804 809 812 815 819 823 827 831 834 837 840 843 846 847 849 850 850 851 851 850 850 850 850 849 849 849 848 846 844 846 845 849 851
757 772 770 767 760 765 767 779 771 769 774 780 783 786 792 796 800 806 810 814 817 822 826 830 833 836 839 842 844 846 847 848 849 849 849 849 849 848 848 849 848 848 846 845 844 845 846 848 848
780 774 764 767 763 765 771 773 769 769 771 775 779 783 788 790 795 801 807 811 816 820 825 829 832 835 839 841 844 844 845 846 847 847 847 848 847 847 848 848 848 847 846 845 845 845 846 845 845
763 768 766 758 752 765 769 771 771 767 769 772 776 779 783 785 789 795 802 808 813 818 823 826 830 834 837 839 841 842 842 843 844 845 846 846 847 847 846 847 848 847 847 846 846 847 848 847 847
761 765 763 756 751 759 763 770 763 766 767 766 771 774 778 781 783 790 797 803 808 814 819 824 827 831 834 837 838 839 840 841 842 843 845 845 846 846 846 847 847 847 847 847 847 847 846 846 846
755 764 766 764 757 751 759 765 768 762 762 763 765 767 770 775 778 784 792 798 803 808 814 819 823 827 831 833 836 838 839 841 841 842 843 844 845 846 846 846 846 847 846 846 848 847 847 846 845
762 755 757 764 761 773 753 776 766 762 766 764 764 766 767 770 775 779 787 794 798 804 809 815 820 823 827 830 832 834 835 836 837 840 841 844 844 844 844 845 846 846 846 847 847 848 848 847 844
763 754 758 756 755 755 764 766 768 755 767 762 759 759 764 767 770 774 781 787 793 798 804 810 815 819 823 825 828 831 834 835 836 838 841 843 842 842 844 844 846 847 847 847 848 849 849 848 846
750 757 755 749 749 769 763 761 753 757 750 749 749 752 756 762 767 770 775 783 788 794 800 806 811 815 819 822 825 828 830 834 835 838 839 840 840 841 842 844 845 846 846 847 848 849 849 848 848
757 756 774 781 773 778 755 762 750 736 733 731 741 746 750 755 766 767 771 777 784 789 796 801 806 811 814 818 822 825 828 831 835 837 838 838 839 840 841 842 843 844 846 847 848 849 849 849 849
751 754 774 806 787 772 754 767 754 728 723 726 726 733 743 750 759 761 766 773 781 787 792 796 801 806 809 813 817 821 825 828 831 833 834 836 837 838 839 840 842 843 845 846 847 848 849 849 850
750 764 742 761 759 772 756 744 731 726 730 729 730 733 741 745 750 758 763 769 776 782 787 792 796 801 805 808 813 816 820 824 826 829 831 834 836 836 838 839 841 842 844 845 847 848 849 850 850
749 744 766 758 796 797 766 764 769 758 754 738 736 737 739 743 747 753 759 763 770 775 780 786 791 796 800 804 809 811 814 818 821 825 827 830 832 834 836 837 839 841 842 844 845 847 848 849 849
758 755 752 750 762 783 788 773 759 761 756 752 742 735 734 738 742 746 753 760 766 772 776 780 787 791 796 800 803 806 809 813 816 819 822 824 827 830 832 834 836 837 840 842 844 845 846 848 850
748 752 746 762 783 768 771 773 757 761 755 752 747 742 735 734 738 742 748 757 763 768 774 778 782 787 791 794 797 800 804 808 811 814 817 820 822 825 827 829 832 834 836 838 841 843 843 845 847
Wind_Speed
11 10 6 4 4 2 12 11 13 12 11 5 10 1 12 8 4 5 8 14 16 16 16 17 18 18 20 22 20 19 17 15 16 15 14 14 13 14 14 15 16 16 14 15 14 14 14 15 15
10 9 5 4 1 9 10 9 9 9 11 13 10 8 5 5 7 15 19 19 19 18 18 17 18 19 17 20 17 16 16 14 15 14 14 12 13 15 13 14 14 13 12 12 13 12 11 11 12
8 6 3 4 7 11 9 11 9 12 13 6 5 6 5 6 14 21 19 24 20 19 19 17 18 19 16 18 16 15 14 14 14 13 13 11 12 12 12 12 11 10 9 10 11 10 10 9 10
6 4 4 0 13 9 12 9 11 11 5 2 8 11 9 17 12 14 25 24 21 20 18 19 18 17 16 16 15 14 14 14 13 12 12 11 10 10 11 9 9 8 7 8 9 8 8 8 9
4 3 1 8 11 11 10 11 8 6 7 7 4 10 14 9 16 26 24 23 22 20 20 18 19 17 15 14 14 14 13 13 13 12 10 9 8 9 9 7 7 7 6 6 6 6 6 7 7
3 4 6 8 10 9 8 7 7 7 8 8 13 18 9 15 22 23 22 22 20 21 19 17 16 15 14 14 13 13 12 12 12 11 10 9 7 7 7 6 5 4 4 4 4 4 3 3 4
4 3 8 11 11 8 7 5 3 8 8 10 14 12 6 16 20 21 22 20 20 19 18 17 15 13 12 12 11 12 11 10 10 9 8 6 5 5 5 4 4 3 2 2 1 1 1 0 1
3 3 6 4 7 9 8 6 7 7 12 11 13 7 12 20 20 21 20 20 19 18 18 16 15 14 12 10 10 10 9 8 8 7 6 5 4 3 3 2 3 3 2 2 2 2 2 1 2
1 5 6 6 6 10 11 12 6 8 11 4 4 11 23 25 21 22 21 19 19 17 17 16 15 14 12 10 9 8 8 7 7 5 5 2 4 3 2 4 5 4 4 4 3 3 3 4 3
3 3 5 4 5 12 10 11 12 12 10 11 15 19 25 24 22 22 21 20 19 18 17 16 14 13 12 9 9 8 7 7 6 4 4 3 3 3 4 4 5 5 6 6 6 6 5 4 5
2 3 3 6 6 7 11 12 9 11 10 14 21 21 22 22 20 20 19 20 20 19 17 16 15 13 12 10 9 8 8 7 6 5 5 3 3 3 2 2 4 3 4 6 4 6 4 6 4
5 8 3 7 4 5 10 11 8 7 12 17 19 21 21 18 18 19 18 18 18 18 16 16 15 13 11 9 9 8 7 6 5 5 5 4 4 3 2 3 4 4 4 3 4 4 4 5 7
1 7 6 4 6 7 10 8 8 9 15 19 19 19 17 15 16 15 16 16 16 17 16 16 14 13 11 10 9 7 7 6 5 5 5 5 4 3 4 3 5 7 7 7 7 5 5 4 6
2 2 9 9 8 9 11 10 10 11 15 20 19 18 17 15 16 16 15 16 16 16 17 15 15 13 12 11 8 7 7 6 5 5 6 7 5 5 6 5 7 6 5 8 11 9 6 3 4
0 4 7 10 11 8 11 10 9 16 15 20 20 18 17 16 18 17 17 16 17 17 16 16 15 14 13 11 9 7 7 6 6 6 6 7 7 6 7 6 6 6 5 7 7 9 8 8 6
3 7 2 9 11 8 10 9 9 16 17 18 21 19 17 17 19 17 17 16 16 15 16 16 15 15 14 12 10 9 7 7 6 6 7 8 9 9 8 6 7 6 7 5 7 7 7 8 7
3 9 7 7 9 6 11 8 14 16 16 17 19 19 18 17 18 19 17 16 17 16 16 16 15 15 15 13 11 10 8 8 7 7 7 6 8 9 8 5 6 6 7 6 2 6 7 8 8
11 12 8 5 9 8 9 7 12 16 16 18 18 19 19 18 19 21 19 17 16 16 16 16 16 15 14 12 11 10 9 9 8 8 6 6 6 6 6 5 4 5 6 3 1 5 6 5 7
11 10 6 7 3 7 8 6 9 14 16 16 17 18 20 19 22 23 22 20 18 17 17 18 17 16 15 14 13 12 11 10 9 8 7 7 5 4 5 4 3 3 4 1 2 4 5 5 4
7 8 6 4 3 7 4 8 11 14 16 17 18 18 19 20 20 22 22 21 21 20 19 19 19 18 17 15 13 12 10 10 9 8 7 6 5 4 4 2 2 1 1 3 3 2 3 3 4
3 9 8 8 3 4 5 8 13 15 13 15 16 18 18 20 21 20 22 22 22 21 22 23 22 20 18 16 14 11 10 9 9 11 9 7 4 3 3 3 1 1 1 2 2 2 3 1 2
7 6 5 1 7 8 2 2 10 14 17 18 18 18 18 19 19 19 22 21 22 22 21 20 21 22 20 19 16 15 13 11 10 9 6 4 5 3 4 4 3 3 2 2 1 1 3 4 0
8 6 6 5 10 8 7 6 7 10 14 19 20 20 19 18 20 20 23 23 22 21 20 20 21 21 21 21 19 16 15 11 9 8 4 5 6 6 5 4 4 3 2 1 1 1 2 3 5
10 10 9 7 8 5 6 8 11 6 9 16 20 21 20 20 20 20 24 23 22 20 18 18 20 21 21 21 20 19 14 14 9 8 6 6 6 5 6 5 4 5 4 3 2 2 2 3 2
9 13 6 3 5 5 3 6 10 5 2 6 18 21 21 20 18 19 20 22 21 19 19 18 19 20 22 22 21 20 18 15 13 10 9 8 7 5 7 8 7 4 5 4 4 3 3 3 2
6 9 8 3 2 3 2 2 8 8 3 4 10 18 21 21 20 20 21 21 20 20 21 20 20 20 22 24 23 21 18 16 15 13 13 12 8 5 6 9 8 7 7 6 5 4 4 4 3
4 10 6 8 5 7 3 8 13 13 13 8 8 13 19 21 21 21 22 24 23 22 21 21 21 20 22 24 22 22 20 19 16 15 14 15 11 8 7 8 9 9 9 7 6 5 4 3 2
6 3 6 5 2 5 6 2 9 10 12 11 6 10 14 17 19 20 20 25 24 24 24 23 22 22 22 22 22 23 22 21 20 17 16 15 13 11 10 10 10 10 10 9 8 5 5 4 3
6 8 1 2 5 3 4 6 7 10 8 12 9 1 11 14 17 18 19 23 24 23 22 22 22 21 20 21 23 23 23 22 20 20 19 18 17 15 14 12 11 13 12 11 10 7 6 6 4
2 5 8 7 8 2 5 4 9 12 10 10 10 6 2 8 13 14 16 20 23 22 20 19 20 21 22 22 22 24 22 20 21 21 21 19 19 17 16 15 14 14 14 14 13 11 9 9 8
Wind_Direction
162 163 181 197 225 169 76 80 99 109 121 86 133 102 89 54 126 152 162 158 143 139 136 132 128 124 126 137 134 128 117 116 112 107 105 104 104 102 107 106 104 102 95 93 92 90 91 87 80
169 171 218 265 252 85 75 96 81 73 104 122 106 123 96 88 87 123 139 153 149 139 137 136 134 129 128 133 136 124 118 118 111 110 108 105 103 107 109 107 109 106 101 92 95 94 92 88 74
181 222 265 278 47 58 93 90 95 107 130 130 102 70 59 84 133 138 142 148 147 141 139 144 140 133 134 130 132 127 125 122 118 118 114 111 108 110 110 112 114 115 109 97 95 96 94 88 81
186 219 238 75 91 70 79 95 120 130 141 102 110 90 82 116 119 133 142 147 143 140 139 146 137 137 132 130 129 128 130 125 123 125 124 118 115 113 114 117 124 111 110 104 99 96 95 93 90
213 251 136 98 85 78 84 108 114 116 112 125 142 106 113 101 126 135 144 149 143 142 142 145 141 142 135 136 137 133 134 129 128 128 126 126 124 117 116 118 117 116 111 106 103 99 90 93 91
223 260 141 102 105 97 103 117 72 83 100 108 122 124 82 124 137 142 145 147 144 143 147 149 147 143 142 144 145 141 137 133 130 126 127 129 133 126 125 129 123 122 120 110 102 101 102 92 82
284 262 77 111 115 105 116 120 76 102 120 116 137 117 107 149 139 144 147 147 147 147 150 155 154 151 150 147 150 147 144 137 133 134 133 140 138 135 140 149 152 159 156 147 162 145 157 154 75
267 281 147 116 130 105 129 117 106 107 99 120 143 149 148 146 145 145 147 148 154 156 157 163 159 160 161 160 160 158 152 148 149 154 153 172 168 192 184 190 208 203 235 242 234 214 281 262 249
216 219 132 126 156 133 142 127 113 113 134 132 120 139 135 148 148 149 151 155 159 163 163 164 165 167 167 165 174 164 164 169 176 176 190 180 216 192 214 206 235 221 238 241 245 248 235 269 268
269 326 58 74 65 149 147 139 131 144 110 115 119 112 139 150 159 157 161 164 166 169 169 169 171 173 168 172 176 170 174 187 194 195 196 193 193 193 195 218 238 234 232 234 233 242 257 283 240
108 88 82 102 90 155 147 140 150 155 119 141 139 141 150 159 168 166 168 170 171 172 171 174 177 179 176 179 179 183 184 189 194 198 197 201 213 195 229 233 229 234 250 237 234 244 243 263 256
126 123 177 146 137 166 153 149 138 155 122 138 140 149 155 166 174 171 172 171 170 173 178 178 181 184 186 182 185 187 187 188 190 194 196 205 215 209 253 277 292 283 243 244 241 253 236 250 234
327 158 171 139 169 158 145 162 142 128 136 142 146 154 159 167 168 171 174 173 176 178 181 184 185 188 189 189 191 193 193 190 188 190 198 214 235 261 263 294 291 288 280 267 260 266 286 263 258
17 197 176 165 171 166 175 155 164 143 146 149 158 166 162 166 172 168 183 180 183 183 182 182 187 190 189 193 192 190 190 192 192 193 211 227 240 257 285 287 286 290 285 267 255 256 253 311 283
339 198 189 186 175 170 173 165 197 154 159 160 167 169 166 168 172 179 181 186 188 187 182 185 189 191 193 196 195 192 188 188 194 207 225 236 244 259 274 287 301 310 299 285 271 250 237 243 246
268 219 96 139 179 158 210 125 165 162 171 173 172 173 174 176 180 182 181 184 182 186 185 189 190 192 192 193 193 193 199 209 215 231 241 249 253 255 266 290 308 307 305 294 275 223 214 219 222
175 6 24 128 191 164 218 129 162 174 180 176 178 175 179 181 186 186 188 189 179 184 185 190 192 194 191 192 195 202 210 221 230 239 247 262 263 248 241 276 308 316 332 324 271 196 194 199 209
335 337 345 17 154 197 194 137 153 180 185 178 182 181 186 185 188 188 193 192 190 186 189 191 194 194 192 192 199 208 219 225 230 240 245 278 275 246 255 266 309 326 337 338 190 167 169 167 164
317 320 333 44 121 192 201 186 170 174 189 180 185 186 189 192 186 186 190 193 196 196 195 197 197 196 194 199 203 210 218 217 226 232 252 274 274 251 229 262 298 348 354 44 145 148 165 173 184
315 278 60 118 118 209 156 221 186 188 196 190 188 191 192 193 188 190 189 195 199 200 203 203 204 201 200 203 208 215 222 225 229 237 254 271 261 258 255 263 298 9 65 120 146 172 156 177 193
139 7 9 1 133 196 279 212 192 192 203 200 200 195 198 196 194 186 194 197 202 203 205 208 207 204 204 207 207 213 224 235 238 241 245 256 257 265 229 199 196 163 154 141 169 187 239 270 184
285 10 340 259 281 11 293 29 177 188 201 202 200 204 198 198 200 193 193 202 205 208 207 209 210 208 206 205 212 215 221 225 222 226 230 230 218 215 201 185 188 190 170 167 202 275 317 305 167
343 343 314 290 280 278 139 252 104 183 205 208 207 200 201 197 198 199 194 198 206 205 206 207 209 209 207 207 210 215 223 221 222 219 216 212 229 213 198 186 196 194 199 183 285 303 305 296 311
301 275 240 234 266 239 51 292 127 156 218 206 204 205 197 198 202 199 200 196 203 204 205 204 204 206 205 204 208 213 214 221 222 218 225 237 213 212 203 191 198 199 192 202 230 259 254 288 286
235 252 277 259 198 40 51 265 57 66 164 200 198 197 199 196 193 202 199 194 199 203 204 204 200 202 204 204 207 213 212 213 220 227 227 226 222 215 209 195 203 203 201 201 209 223 252 243 263
235 316 299 274 296 60 149 16 69 18 8 212 184 191 191 197 191 204 198 195 197 205 206 204 201 202 203 205 206 210 213 216 221 224 232 231 242 235 213 208 207 205 200 200 205 216 217 222 222
172 241 349 291 213 261 65 112 93 47 48 81 163 177 187 194 194 202 201 203 203 207 210 209 206 205 205 207 207 209 211 212 216 220 224 232 238 236 223 213 209 208 204 203 205 218 213 209 226
286 18 216 203 231 286 126 211 60 17 21 28 116 171 183 197 199 199 207 205 208 209 213 212 211 210 208 208 210 212 214 214 215 218 222 227 230 228 222 216 211 211 207 207 208 210 206 205 225
165 200 205 353 312 309 260 98 37 20 12 9 15 164 183 191 199 203 202 209 209 214 213 212 212 210 207 207 211 213 214 214 216 220 223 224 225 227 223 221 217 215 209 210 210 211 198 202 228
324 44 276 279 148 58 315 53 70 33 5 355 5 13 322 202 195 202 203 205 213 208 213 214 212 209 210 209 210 216 216 213 217 222 224 222 222 223 224 221 221 219 213 211 209 206 209 206 219